STARLINK-34196, 65324

Orbit data source: Space-Track

STARLINK-34196, 65324 is a payload satellite owned by SpaceX/Seattle (US) in LEO that was launched on Wed, 27 Aug 2025 UTC via an FALCON 9 launch vehicle from the Air Force Eastern Test Range (AFETR). Payload-class satellites include a variety of spacecraft equipped with specific instruments for various scientific and technological missions. These include communications satellites like Starlink; space stations such as the ISS; scientific satellites like the Hubble; Earth observation satellites from companies like Planet Labs, Umbra, and HawkEye 360; GPS; miniature CubeSats for education and research; and military/defense satellites.

Loading next visibility...
Identifier
65324, 2025-189B
Orbit
LEO
Country
Flag of USUS
Related business
Manufacturer
SpaceX/Seattle
Mission
Operational Commercial Communications
Bus & Motor
STARLINK V2MO, Unknown motor
Mass
575 kg wet, ~530 kg dry
Launch date (UTC)
2025-08-27 (10 months ago)
Launch vehicle
FALCON 9
Launch site
Air Force Eastern Test Range (AFETR)
Object type
Payload
Rocket body
Debris
Shape & HBR
Box + 2 Pan, 17.7 m
Radar Cross Section
36.964 m², Large (>1 m²)

Expand to show TLE details & history
Last TLE update: 17 hours ago

TLE from 17 hours ago
0 STARLINK-34196
1 65324U 25189B   26171.14574041  .00019953  00000-0  65237-3 0  9991
2 65324  53.1586  90.1113 0001338  93.9027 266.2127 15.31732399 46751
Epoch: 2026-06-20T03:29Z
TLE epoch observation values (Epoch: 2026-06-20T03:29:51.971Z)
Latitude
-0.00005°
Longitude
129.28016°
Altitude
471.604 km
Speed
7.631 km/s
True Right ascension
06h 00m 26s
True Declination
0° 00' 00"
Sunlit
Object was in daylight at epoch
Visualization orbit readout
Latitude
Unknown
Longitude
Unknown
Altitude
Unknown
Speed
Unknown
Apparent Right ascension
Unknown
Apparent Declination
Unknown
Sunlit
N/A
Visualization observer readout
Local Sidereal Time
07:13:40
Azimuth
Unknown
Elevation
Unknown
Doppler factor
Unknown
Orbital elements
Apogee altitude
471.817 km
Perigee altitude
469.984 km
Semi-major axis
6,849.037 km
Eccentricity
0.00013
Inclination
53.1586°
RAAN
90.1113°
Arg. of periapsis
93.9027°
True anomaly
266.1974°
Mean anomaly
266.2127°
Eccentric anomaly
266.20505°
Mean motion
3.82912 °/min
Orbital period
94.02 mins
BSTAR
0.00065237
Loading maneuver chart data...
Computing Atmospheric mass density...
Loading historical data...
Loading historical data...
Loading historical data...
Loading historical data...
Loading historical data...
Loading historical data...
Loading historical data...

Documentation

Showing up to 5 results
|